Theta_e
317 318 320 320 321 320 320 319 318 318 319 318 315 315 317 319 318 322 323 323 323 323 321 320 318 316 314 312 310 308 302 300 300 298 297 297 296 295 294 294 294 295 295 295
322 321 319 318 319 319 318 318 318 317 317 316 316 317 316 317 318 320 323 323 322 321 319 317 316 314 312 310 308 302 300 299 298 297 295 293 293 293 292 292 294 294 295 295
321 314 315 313 316 317 317 317 317 317 315 315 315 315 315 316 316 318 322 322 320 319 318 316 315 313 310 306 303 301 299 297 295 294 294 294 294 292 292 294 294 294 295 294
314 312 311 316 316 315 316 315 313 313 314 315 315 316 317 316 317 317 319 319 318 318 316 313 311 309 305 303 300 299 297 295 296 295 295 294 293 293 293 294 294 294 293 293
312 313 316 316 315 314 314 314 313 313 314 315 315 316 315 316 317 317 317 317 317 315 313 309 307 304 301 299 297 295 295 296 298 295 294 292 292 293 293 293 292 291 291 292
311 314 311 315 314 315 314 312 314 313 313 315 315 312 314 315 315 316 316 315 313 310 307 305 301 300 299 297 296 296 296 299 294 294 292 292 293 293 293 292 292 292 291 292
307 310 313 318 314 314 312 312 315 316 317 317 315 316 315 315 315 314 312 311 308 306 303 300 299 298 297 296 296 299 297 295 294 293 291 292 292 292 292 292 292 292 291 291
313 316 315 318 314 313 315 316 315 316 317 317 316 315 314 313 310 309 306 304 303 301 299 298 297 297 297 299 297 294 294 293 292 291 292 292 292 290 290 289 291 291 290 290
315 315 316 317 316 315 315 315 315 315 315 315 315 314 313 307 305 302 302 300 299 299 298 297 298 299 300 294 294 292 292 291 291 291 291 292 291 290 290 290 288 289 289 289
316 317 314 316 315 315 315 314 314 314 314 314 314 312 307 303 301 300 299 299 299 299 299 300 299 294 294 293 292 292 292 291 291 291 291 291 290 290 290 289 287 287 287 288
316 315 316 315 315 315 314 314 313 313 313 313 311 303 302 300 300 299 299 299 299 299 297 295 295 294 293 292 292 292 292 292 292 291 290 289 290 290 289 288 287 287 286 286
311 316 315 314 314 314 313 310 310 310 308 305 307 302 300 299 299 299 300 297 296 296 295 293 293 293 293 292 292 292 292 292 292 291 291 291 290 290 289 288 288 287 287 287
316 316 313 310 310 310 309 306 305 305 303 302 301 301 301 299 296 296 296 296 296 294 293 293 293 292 292 293 293 293 292 292 292 292 292 291 291 290 290 289 289 288 287 287
314 312 309 309 303 305 305 303 303 302 302 301 299 298 298 296 296 296 294 293 293 293 292 292 292 292 292 292 292 292 292 292 291 291 291 291 291 291 290 290 290 288 288 287
313 312 306 304 304 303 303 302 301 299 298 298 296 295 295 294 293 293 293 292 291 290 289 288 288 287 287 287 288 289 290 291 291 291 291 292 292 291 290 290 289 288 288 287
306 305 305 304 302 301 300 299 298 298 296 297 296 294 292 290 290 290 290 289 288 287 286 286 287 288 289 288 288 287 286 286 286 287 289 289 291 291 290 290 288 288 287 286
305 303 302 301 300 299 299 298 297 297 296 291 290 290 290 289 289 288 288 286 285 285 286 288 288 288 286 284 283 282 285 285 286 286 285 288 288 289 289 287 286 285 286 286
306 304 303 300 299 298 297 297 295 291 290 290 290 289 289 289 288 286 285 284 284 285 286 285 285 284 283 281 281 283 283 284 284 284 284 284 287 288 287 286 286 285 285 285
304 302 300 298 298 297 294 291 290 290 290 289 288 288 287 286 285 284 284 283 283 283 283 283 282 280 280 280 279 279 280 281 282 283 284 285 286 287 286 286 286 285 285 285
300 299 297 295 295 292 290 291 290 289 288 288 287 286 285 284 283 283 282 282 282 282 281 279 279 279 278 279 279 280 281 282 283 284 284 285 284 284 284 283 283 283 283 282
296 296 295 292 290 291 291 290 289 288 287 287 286 285 284 283 282 281 281 281 280 279 278 278 278 278 278 278 278 278 279 279 280 280 280 280 280 280 280 279 279 279 279 279
293 291 290 290 290 290 288 288 287 287 286 286 284 283 282 281 281 280 279 278 278 277 277 277 277 277 277 277 277 277 277 277 277 277 277 277 277 277 277 277 276 276 277 277
290 290 290 290 289 288 287 287 286 285 284 283 282 282 280 280 279 279 278 277 277 276 276 276 277 276 276 276 276 276 276 276 275 275 275 275 275 275 275 275 275 275 275 275
291 291 290 288 287 287 286 284 284 283 282 281 280 280 279 278 278 277 276 276 276 276 276 275 275 275 275 275 275 274 274 274 274 273 273 273 273 273 273 273 273 273 273 273
290 289 287 286 286 286 285 282 282 282 281 280 279 278 278 277 277 276 275 275 274 274 274 273 273 273 273 273 273 272 272 272 272 272 272 271 271 271 271 271 271 271 271 271
288 287 286 286 285 284 283 281 280 280 279 279 278 277 277 276 276 275 274 274 273 272 272 271 271 270 271 270 270 271 271 271 270 270 270 270 269 269 269 269 270 270 270 269
287 286 285 285 284 282 280 280 279 278 278 278 277 276 276 276 275 275 274 273 272 271 271 270 270 270 270 269 269 269 270 269 269 269 270 269 269 268 269 269 269 269 269 269
Wind_Speed
4 6 4 5 0 5 4 6 6 8 7 10 5 11 18 15 11 18 29 29 29 31 27 22 19 17 19 20 16 12 9 10 11 10 14 15 16 18 18 19 20 21 19 20
1 5 8 4 5 6 6 6 4 3 5 4 9 17 15 9 10 11 22 24 23 21 21 20 19 21 19 15 10 13 15 10 10 13 14 14 15 17 21 20 19 20 22 25
2 4 6 6 6 6 6 5 4 4 7 5 5 9 10 9 6 7 19 19 17 18 19 18 20 20 15 15 16 17 13 9 8 10 14 18 21 22 20 18 19 19 18 22
3 3 1 8 5 5 4 1 5 6 6 10 10 14 13 12 9 10 12 14 14 17 18 20 19 19 20 17 15 9 5 3 8 11 15 20 21 20 18 21 23 24 26 25
4 4 5 9 1 2 3 3 5 7 7 14 12 24 23 17 14 13 13 13 14 16 20 22 22 20 19 13 8 8 4 5 10 11 20 21 20 20 22 25 24 23 20 21
3 4 6 6 3 5 4 1 7 13 6 8 9 5 3 12 14 14 12 14 20 21 21 21 20 18 18 14 7 2 7 12 11 19 20 18 19 21 23 24 25 23 23 23
2 2 7 7 7 3 6 6 9 13 15 12 5 6 10 11 15 14 18 20 21 21 21 20 19 17 12 7 2 10 8 18 20 18 19 19 21 21 23 21 20 25 28 28
3 2 6 10 5 6 5 10 11 16 15 16 12 11 16 16 18 20 23 22 21 21 18 14 11 6 1 10 5 9 17 16 17 17 15 20 24 25 21 22 24 23 27 30
7 6 7 12 19 14 12 15 12 10 7 9 10 15 15 19 19 18 17 17 16 14 12 6 2 7 7 4 12 13 14 17 17 17 17 21 25 27 28 30 22 26 25 25
4 3 7 24 21 16 13 14 8 6 3 1 5 17 22 22 19 17 14 12 8 5 1 5 5 4 10 12 14 14 17 17 16 18 20 23 26 28 30 33 25 21 25 27
2 10 21 16 16 13 13 14 10 7 6 7 18 25 24 21 17 12 8 5 1 2 2 3 8 11 12 13 14 18 18 18 21 24 24 25 26 28 30 28 23 24 26 24
4 8 12 11 11 16 18 18 13 12 17 20 20 22 18 17 12 9 8 7 7 6 7 8 10 11 12 16 19 20 23 26 29 28 29 29 28 29 28 30 27 25 24 23
9 17 25 24 21 17 19 16 13 13 15 17 16 14 13 15 13 11 9 8 6 6 6 9 14 15 16 18 20 25 30 31 31 30 30 34 29 30 33 32 32 29 26 22
21 25 21 14 18 16 15 16 14 17 18 19 20 18 16 14 12 10 8 4 2 7 10 10 13 15 17 21 24 27 29 33 36 40 40 36 34 33 34 36 37 34 27 24
14 9 26 26 20 17 16 18 22 23 22 18 17 16 14 12 9 5 1 5 7 10 13 16 19 20 22 23 25 27 29 31 32 34 38 40 39 36 37 36 30 30 28 30
26 28 24 20 19 19 20 21 24 19 19 14 11 9 7 5 4 3 4 9 14 17 19 19 18 19 21 25 29 33 35 36 37 38 39 40 40 39 33 29 24 25 27 30
31 24 22 22 22 20 16 18 22 17 13 11 10 8 6 5 4 6 11 14 16 15 14 16 19 23 29 32 32 31 30 32 33 35 38 34 33 37 30 22 19 19 19 20
16 17 17 25 27 26 22 19 16 14 13 11 8 5 4 6 10 13 15 16 15 15 17 20 25 30 34 33 28 30 32 33 35 36 37 34 31 27 21 16 19 20 21 22
19 24 24 23 21 19 19 18 15 14 12 8 4 5 8 10 12 14 15 16 18 20 24 28 32 31 27 30 31 31 30 30 30 32 33 33 30 28 15 14 13 11 10 13
27 26 26 23 16 17 19 15 13 10 7 4 5 6 9 12 14 15 15 14 15 19 24 25 25 28 29 29 28 24 25 25 24 25 22 18 12 8 14 17 19 20 21 20
26 22 20 20 20 17 14 12 8 5 3 4 7 10 12 13 13 15 16 16 19 22 21 24 24 27 28 28 27 24 24 24 25 27 23 20 20 20 18 16 15 14 15 15
23 22 21 19 18 16 12 8 4 3 4 6 9 11 12 12 14 14 13 16 18 20 20 21 22 23 24 24 24 23 23 23 23 23 21 18 16 16 14 15 15 16 15 15
21 20 18 15 13 11 8 4 2 4 6 9 11 12 13 13 14 15 15 16 17 18 19 19 20 21 22 23 23 22 22 23 22 21 19 18 18 18 18 18 19 19 19 18
20 17 15 13 10 7 5 3 2 5 7 9 11 13 13 14 13 12 12 14 17 17 18 20 21 22 23 23 22 21 20 22 22 20 19 18 18 18 19 20 20 19 18 18
16 16 14 11 10 7 3 3 3 5 7 9 11 12 13 14 14 14 16 18 18 20 20 20 22 23 24 24 23 22 21 20 21 20 20 19 19 19 20 20 19 19 19 19
16 15 14 10 6 3 1 2 5 7 9 10 10 10 10 13 15 18 18 19 20 21 21 23 22 22 23 23 23 22 21 21 20 20 20 19 19 20 20 20 20 19 19 20
11 8 7 6 2 1 3 6 7 8 11 12 13 10 10 13 17 19 20 21 20 18 20 22 21 21 21 21 21 22 20 20 19 20 19 18 20 20 21 21 20 20 20 21
Wind_Direction
292 306 322 261 247 321 298 227 149 236 218 253 273 204 200 191 195 194 191 190 182 168 169 172 180 189 194 199 206 224 187 197 229 248 264 272 286 287 289 291 293 297 296 288
301 346 10 9 309 296 296 293 318 304 260 242 122 100 93 102 194 168 154 159 164 171 178 182 194 194 200 210 217 194 206 223 248 257 279 297 307 316 300 295 291 294 293 292
245 360 4 345 238 234 245 255 238 267 265 325 71 86 111 86 64 165 172 170 170 177 182 190 195 202 203 184 188 196 205 232 277 314 318 327 315 302 295 301 292 289 292 297
180 40 29 241 267 152 161 50 41 67 68 73 80 77 70 67 107 118 134 154 162 170 173 170 172 172 172 177 189 199 233 254 325 328 316 298 295 302 299 292 294 294 292 290
137 186 288 317 90 149 146 46 39 81 89 78 69 69 52 78 94 109 119 137 154 164 163 158 161 163 166 156 146 158 170 346 328 315 285 294 302 304 300 298 304 306 296 288
101 145 206 239 146 65 53 46 25 57 64 102 66 72 305 76 83 102 125 145 148 150 153 158 155 167 167 159 146 358 354 324 291 282 298 299 300 301 298 302 307 301 301 293
129 192 287 249 143 113 98 220 61 60 66 69 91 119 100 107 113 131 132 138 145 152 151 150 159 170 154 145 98 323 307 273 283 290 294 294 299 294 291 287 294 293 292 294
113 112 278 192 100 134 189 101 91 76 87 100 106 105 114 117 118 122 123 132 143 146 143 147 158 162 49 307 315 267 267 290 294 297 300 294 300 306 311 305 286 292 295 295
169 210 228 119 114 110 106 90 82 90 83 86 125 126 138 127 126 130 135 139 143 148 143 132 75 308 308 273 272 285 290 291 295 298 296 294 301 309 310 312 288 282 291 295
93 236 121 104 100 108 108 93 93 83 88 156 100 155 139 138 138 140 136 131 140 155 176 326 325 329 295 305 306 296 299 299 299 299 299 295 298 300 301 308 310 307 291 288
171 101 86 77 92 97 97 104 114 112 109 121 142 132 143 141 139 127 120 112 32 358 49 349 311 302 298 303 305 299 298 294 292 299 298 300 300 299 302 311 311 305 303 297
202 115 117 113 105 129 121 115 123 120 114 122 142 131 128 114 110 109 98 97 82 34 320 334 333 321 307 298 294 291 285 286 293 296 301 303 300 305 309 310 310 306 300 294
134 130 120 117 119 129 125 125 126 124 122 121 113 119 112 105 102 96 74 47 16 344 334 306 303 310 318 313 304 298 295 293 291 290 294 299 296 299 300 306 308 307 306 302
129 127 117 137 116 128 131 126 122 113 105 102 98 93 94 84 81 64 78 99 283 299 310 313 307 303 301 293 288 287 290 291 294 296 297 294 288 291 294 294 298 304 304 303
140 153 140 136 134 126 125 123 115 111 107 105 108 110 116 113 112 88 291 302 314 319 320 319 317 314 307 304 304 304 304 304 305 302 298 293 283 283 285 284 290 296 300 305
125 132 135 131 129 129 126 122 117 120 131 133 130 121 113 111 105 79 342 332 334 337 336 328 322 319 323 323 318 313 310 307 304 301 300 301 299 294 276 286 286 285 292 298
128 124 132 131 131 129 139 139 140 136 132 129 118 111 105 78 32 0 351 346 345 346 330 324 320 318 317 320 320 315 311 314 312 308 309 305 303 297 277 293 292 298 303 303
153 151 148 139 148 145 136 137 137 135 130 121 115 98 48 9 1 352 346 345 339 330 326 320 322 323 321 320 318 313 311 305 307 312 312 309 296 286 299 297 302 307 312 313
149 140 143 150 151 145 142 140 138 131 125 118 98 28 12 359 353 348 344 340 332 333 334 330 322 324 330 329 329 331 330 325 319 311 316 320 295 285 296 308 314 323 329 315
142 149 149 143 146 148 143 138 135 132 116 79 30 9 358 352 347 343 342 344 334 329 324 328 334 334 338 342 344 344 356 358 352 344 326 322 6 346 320 314 307 303 304 305
143 146 149 146 142 141 139 137 139 129 88 16 356 353 352 347 342 343 339 341 339 334 340 338 343 345 350 347 346 342 335 334 334 343 348 347 339 336 333 330 327 326 325 324
147 146 145 145 144 141 140 139 125 66 16 349 345 347 349 348 344 347 344 338 336 341 344 345 348 351 349 349 349 347 344 343 342 339 339 343 343 342 342 332 334 332 331 328
149 149 147 145 144 138 130 117 68 4 354 343 343 345 348 348 344 342 347 340 338 341 339 340 343 343 345 346 348 347 343 342 345 346 344 338 333 332 327 324 323 322 321 319
151 152 147 142 142 140 114 91 339 339 347 337 337 339 339 340 343 337 333 333 331 332 331 330 332 333 336 341 341 341 341 339 342 345 342 337 336 330 328 327 327 326 322 318
152 145 141 148 158 165 152 146 258 308 317 319 328 329 331 336 339 341 335 329 330 330 330 332 331 332 336 339 341 341 341 340 339 338 338 340 337 334 333 332 332 329 326 324
154 153 162 179 186 189 225 292 298 309 311 319 328 327 327 330 331 329 327 328 323 324 329 330 332 332 332 334 339 339 340 342 341 337 340 342 341 338 335 334 332 330 329 326
154 152 172 180 202 275 306 317 325 320 312 319 328 328 319 315 317 317 318 321 324 315 319 324 327 331 331 329 333 335 337 341 341 336 342 343 342 340 337 336 334 332 330 327